Palo Verde, AZ

2:34 PM MST on August 23, 2016 (GMT -0700)
Buckeye Municipal

Weather History for KBXK - December, 2012

Change the Weather History Date:

Wednesday, December 19, 2012

  Actual Average (KGYR) Record (KGYR)
Temperature  
Mean Temperature 46 °F -  
Max Temperature 55 °F 63 °F 77 °F (2003)
Min Temperature 37 °F 38 °F 30 °F (1996)
Degree Days  
Heating Degree Days 19    
Moisture  
Dew Point 28 °F    
Average Humidity 52    
Maximum Humidity 87    
Minimum Humidity 29    
Precipitation  
Precipitation 0.00 in - - ()
Sea Level Pressure  
Sea Level Pressure 30.10 in    
Wind  
Wind Speed 12 mph (WNW)    
Max Wind Speed 23 mph    
Max Gust Speed 32 mph    
Visibility 10 miles    
Events      
Averages and records for this station are not official NWS values.
T = Trace of Precipitation, MM = Missing Value Source: NWS Daily Summary

Daily Weather History Graph

Daily Weather History Graph

Search for Another Location

Airport or City:

Trip Planner

Search our weather history database for the weather conditions in past years. The results will help you decide how hot, cold, wet, or windy it might be!

Date:

Astronomy

Dec. 19, 2012 Rise Set
Actual Time 7:30 AM MST 5:26 PM MST
Civil Twilight 7:02 AM MST 5:53 PM MST
Nautical Twilight 6:31 AM MST 6:25 PM MST
Astronomical Twilight 6:01 AM MST 6:55 PM MST
Moon 12:00 PM MST (12/19) No Moon Set
Length of Visible Light 10h 51m
Length of Day
9h 56m
Waxing Crescent, 45% of the Moon is Illuminated
Dec 19
Waxing Crescent
Dec 19
First Quarter
Dec 28
Full
Jan 4
Last Quarter
Jan 11
New

Hourly Weather History & Observations

Time (MST) Temp. Windchill Dew Point Humidity Pressure Visibility Wind Dir Wind Speed Gust Speed Precip Events Conditions
12:15 AM 50.0 °F - 46.4 °F 87% 29.78 in 10.0 mi West 18.4 mph 26.5 mph N/A   Mostly Cloudy
12:35 AM 50.0 °F - 41.0 °F 71% 29.79 in 9.0 mi West 15.0 mph - N/A   Overcast
12:55 AM 50.0 °F - 33.8 °F 54% 29.79 in 10.0 mi WNW 16.1 mph 31.1 mph N/A   Mostly Cloudy
1:15 AM 48.2 °F - 30.2 °F 50% 29.79 in 10.0 mi WNW 11.5 mph 23.0 mph N/A   Mostly Cloudy
1:35 AM 48.2 °F - 32.0 °F 54% 29.82 in 10.0 mi West 12.7 mph 16.1 mph N/A   Mostly Cloudy
1:55 AM 46.4 °F 40.4 °F 32.0 °F 57% 29.83 in 10.0 mi West 13.8 mph 19.6 mph N/A   Overcast
2:15 AM 46.4 °F 41.1 °F 30.2 °F 53% 29.84 in 10.0 mi West 11.5 mph - N/A   Overcast
2:35 AM 46.4 °F 40.1 °F 30.2 °F 53% 29.85 in 10.0 mi West 15.0 mph 21.9 mph N/A   Overcast
2:55 AM 44.6 °F 35.9 °F 28.4 °F 53% 29.85 in 10.0 mi West 23.0 mph 32.2 mph N/A   Overcast
3:15 AM 44.6 °F 35.9 °F 26.6 °F 49% 29.86 in 10.0 mi West 23.0 mph 31.1 mph N/A   Scattered Clouds
3:35 AM 44.6 °F 37.4 °F 28.4 °F 53% 29.88 in 10.0 mi West 16.1 mph - N/A   Clear
3:55 AM 44.6 °F 38.1 °F 28.4 °F 53% 29.89 in 10.0 mi West 13.8 mph 20.7 mph N/A   Clear
4:15 AM 42.8 °F 35.1 °F 28.4 °F 57% 29.89 in 10.0 mi West 16.1 mph 26.5 mph N/A   Clear
4:35 AM 41.0 °F 33.9 °F 28.4 °F 61% 29.91 in 10.0 mi West 12.7 mph - N/A   Clear
4:55 AM 42.8 °F 34.3 °F 28.4 °F 57% 29.91 in 10.0 mi West 19.6 mph 27.6 mph N/A   Clear
5:15 AM 41.0 °F 32.5 °F 26.6 °F 57% 29.92 in 10.0 mi West 17.3 mph - N/A   Clear
5:35 AM 41.0 °F 33.9 °F 26.6 °F 57% 29.94 in 10.0 mi West 12.7 mph 20.7 mph N/A   Clear
5:55 AM 41.0 °F 33.1 °F 26.6 °F 57% 29.96 in 10.0 mi WNW 15.0 mph - N/A   Clear
6:15 AM 41.0 °F 33.9 °F 26.6 °F 57% 29.97 in 10.0 mi West 12.7 mph - N/A   Clear
6:35 AM 41.0 °F 33.9 °F 26.6 °F 57% 29.99 in 10.0 mi West 12.7 mph 16.1 mph N/A   Clear
6:55 AM 41.0 °F 35.2 °F 26.6 °F 57% 30.00 in 10.0 mi West 9.2 mph - N/A   Clear
7:15 AM 39.2 °F 32.5 °F 28.4 °F 65% 30.03 in 10.0 mi West 10.4 mph - N/A   Clear
7:35 AM 39.2 °F 33.6 °F 28.4 °F 65% 30.04 in 10.0 mi WNW 8.1 mph - N/A   Clear
7:55 AM 37.4 °F 32.1 °F 30.2 °F 75% 30.06 in 10.0 mi North 6.9 mph - N/A   Clear
8:15 AM 39.2 °F 35.0 °F 30.2 °F 70% 30.07 in 10.0 mi NW 5.8 mph - N/A   Clear
8:35 AM 39.2 °F 35.0 °F 30.2 °F 70% 30.09 in 10.0 mi WNW 5.8 mph - N/A   Clear
8:55 AM 41.0 °F 38.0 °F 28.4 °F 61% 30.11 in 10.0 mi WNW 4.6 mph - N/A   Clear
9:15 AM 41.0 °F 36.4 °F 28.4 °F 61% 30.12 in 10.0 mi West 6.9 mph - N/A   Clear
9:35 AM 44.6 °F 40.7 °F 28.4 °F 53% 30.13 in 10.0 mi West 6.9 mph - N/A   Clear
9:55 AM 44.6 °F 40.7 °F 32.0 °F 61% 30.15 in 10.0 mi SE 6.9 mph - N/A   Clear
10:15 AM 44.6 °F 40.7 °F 32.0 °F 61% 30.16 in 10.0 mi WSW 6.9 mph - N/A   Clear
10:35 AM 48.2 °F - 32.0 °F 54% 30.16 in 10.0 mi West 9.2 mph - N/A   Clear
10:55 AM 48.2 °F - 32.0 °F 54% 30.17 in 10.0 mi WSW 8.1 mph - N/A   Clear
11:15 AM 50.0 °F - 30.2 °F 47% 30.18 in 10.0 mi NW 5.8 mph - N/A   Clear
11:35 AM 51.8 °F - 26.6 °F 38% 30.17 in 10.0 mi NNW 16.1 mph - N/A   Clear
11:55 AM 51.8 °F - 26.6 °F 38% 30.16 in 10.0 mi NW 12.7 mph - N/A   Clear
12:15 PM 53.6 °F - 26.6 °F 35% 30.17 in 10.0 mi NNW 12.7 mph 18.4 mph N/A   Clear
12:35 PM 53.6 °F - 26.6 °F 35% 30.17 in 10.0 mi WNW 13.8 mph - N/A   Clear
12:55 PM 53.6 °F - 24.8 °F 33% 30.16 in 10.0 mi NNW 11.5 mph 19.6 mph N/A   Clear
1:15 PM 53.6 °F - 24.8 °F 33% 30.16 in 10.0 mi NNW 8.1 mph - N/A   Clear
1:35 PM 53.6 °F - 24.8 °F 33% 30.16 in 10.0 mi NNW 6.9 mph - N/A   Clear
1:55 PM 53.6 °F - 23.0 °F 30% 30.15 in 10.0 mi NNW 6.9 mph - N/A   Clear
2:15 PM 55.4 °F - 23.0 °F 29% 30.15 in 10.0 mi West 6.9 mph - N/A   Clear
2:35 PM 55.4 °F - 23.0 °F 29% 30.16 in 10.0 mi West 5.8 mph - N/A   Clear
2:55 PM 55.4 °F - 23.0 °F 29% 30.16 in 10.0 mi NW 5.8 mph - N/A   Clear
3:15 PM 55.4 °F - 23.0 °F 29% 30.17 in 10.0 mi WSW 4.6 mph - N/A   Clear
3:35 PM 55.4 °F - 23.0 °F 29% 30.17 in 10.0 mi Calm Calm - N/A   Clear
3:55 PM 55.4 °F - 23.0 °F 29% 30.18 in 10.0 mi Calm Calm - N/A   Clear
4:15 PM 55.4 °F - 23.0 °F 29% 30.19 in 10.0 mi WSW 4.6 mph - N/A   Clear
4:35 PM 55.4 °F - 23.0 °F 29% 30.19 in 2.5 mi South 4.6 mph - N/A   Clear
4:55 PM 53.6 °F - 28.4 °F 38% 30.20 in 10.0 mi South 5.8 mph - N/A   Clear
5:15 PM 51.8 °F - 28.4 °F 41% 30.20 in 10.0 mi SW 5.8 mph - N/A   Clear
5:35 PM 50.0 °F - 28.4 °F 43% 30.20 in 10.0 mi WSW 4.6 mph - N/A   Clear
5:55 PM 48.2 °F - 28.4 °F 46% 30.21 in 10.0 mi WSW 5.8 mph - N/A   Clear
6:15 PM 48.2 °F - 26.6 °F 43% 30.22 in 10.0 mi SW 5.8 mph - N/A   Clear
6:35 PM 48.2 °F - 26.6 °F 43% 30.23 in 10.0 mi SW 5.8 mph - N/A   Clear
6:55 PM 44.6 °F 42.2 °F 28.4 °F 53% 30.23 in 10.0 mi WSW 4.6 mph - N/A   Clear
7:15 PM 42.8 °F 40.1 °F 32.0 °F 66% 30.24 in 10.0 mi West 4.6 mph - N/A   Clear
7:35 PM 44.6 °F 40.2 °F 26.6 °F 49% 30.25 in 10.0 mi NW 8.1 mph - N/A   Clear
7:55 PM 44.6 °F 42.2 °F 26.6 °F 49% 30.26 in 10.0 mi North 4.6 mph - N/A   Clear
8:15 PM 42.8 °F 38.6 °F 26.6 °F 53% 30.27 in 10.0 mi NW 6.9 mph - N/A   Clear
8:35 PM 42.8 °F 40.1 °F 26.6 °F 53% 30.27 in 10.0 mi NNW 4.6 mph - N/A   Clear
8:55 PM 41.0 °F 38.0 °F 26.6 °F 57% 30.28 in 10.0 mi North 4.6 mph - N/A   Clear
9:15 PM 41.0 °F 38.0 °F 26.6 °F 57% 30.29 in 10.0 mi SW 4.6 mph - N/A   Clear
9:35 PM 39.2 °F 34.2 °F 26.6 °F 61% 30.30 in 10.0 mi WNW 6.9 mph - N/A   Clear
9:55 PM 39.2 °F 35.0 °F 28.4 °F 65% 30.31 in 10.0 mi North 5.8 mph - N/A   Clear
10:15 PM 39.2 °F 33.0 °F 26.6 °F 61% 30.31 in 10.0 mi NNW 9.2 mph - N/A   Clear
10:35 PM 39.2 °F 35.9 °F 26.6 °F 61% 30.32 in 10.0 mi WNW 4.6 mph - N/A   Clear
10:55 PM 37.4 °F 32.8 °F 28.4 °F 70% 30.32 in 10.0 mi NNW 5.8 mph - N/A   Clear
11:15 PM 37.4 °F 33.8 °F 28.4 °F 70% 30.33 in 10.0 mi North 4.6 mph - N/A   Clear
11:35 PM 37.4 °F 32.1 °F 32.0 °F 81% 30.33 in 10.0 mi North 6.9 mph - N/A   Clear
11:55 PM 37.4 °F 32.8 °F 32.0 °F 81% 30.34 in 10.0 mi NNW 5.8 mph - N/A   Clear